Meteo Giornale » Osservazioni meteo Norvegia » Bergen-Flesland
ore: 18:20 - Osservazioni Meteo Bergen-Flesland
Lat. 60° 17' N Lon. 5° 14' E Alt. 5 metri s.l.m.
13 °C
Molto Nuvoloso
Temp. 24 Ore
8 °C
15 °C
Sud/Sud-Est
20.3 Km/h
Dew point 11 °C
Umidità 87 %
Visibilità 10 Km
Il sole sorge alle ore 06:33
Il sole tramonta alle ore 20:44
| Data e Ora | Cielo e Fenomeni | T °C | DP °C | Um. % | Pres. hPa | Vis. km | Vento km/h | |
|---|---|---|---|---|---|---|---|---|
| Oggi h: 18:20 | Molto Nuvoloso | 13 | 11 | 87 | 1008 | 10 | S/SE 20.3 | |
| Oggi h: 17:50 | Molto Nuvoloso | 13 | 11 | 87 | 1008 | 10 | S/SE 20.3 | |
| Oggi h: 17:20 | Pioggia nelle vicinanze | 13 | 12 | 93 | 1009 | 10 | S 16.7 | |
| Oggi h: 16:50 | Pioviggine | 13 | 11 | 87 | 1009 | 10 | S/SO 20.3 | |
| Oggi h: 16:20 | Molto Nuvoloso | 13 | 12 | 93 | 1009 | 10 | S 18.5 | |
| Oggi h: 15:50 | Pioggia | 13 | 12 | 93 | 1009 | 10 | S 16.7 | |
| Oggi h: 15:20 | Pioggia | 13 | 12 | 93 | 1009 | 10 | S 18.5 | |
| Oggi h: 14:50 | Pioggia | 13 | 11 | 87 | 1009 | 10 | S 16.7 | |
| Oggi h: 14:20 | Pioggia | 13 | 11 | 87 | 1009 | 10 | S 18.5 | |
| Oggi h: 13:50 | Molto Nuvoloso | 14 | 11 | 82 | 1009 | 10 | S/SE 18.5 | |
| Oggi h: 13:20 | Molto Nuvoloso | 14 | 11 | 82 | 1009 | 10 | S/SE 18.5 | |
| Oggi h: 12:50 | Molto Nuvoloso | 14 | 11 | 82 | 1009 | 10 | S 16.7 | |
| Oggi h: 12:20 | Molto Nuvoloso | 14 | 11 | 82 | 1009 | 10 | S/SE 16.7 | |
| Oggi h: 11:50 | Molto Nuvoloso | 13 | 11 | 87 | 1009 | 10 | S/SE 11.1 | |
| Oggi h: 11:20 | Molto Nuvoloso | 12 | 11 | 93 | 1009 | 10 | SE 7.4 | |
| Oggi h: 10:50 | Molto Nuvoloso | 12 | 11 | 93 | 1009 | 10 | N 5.5 | |
| Oggi h: 10:20 | Pioggia nelle vicinanze | 11 | 10 | 93 | 1010 | 10 | SE 7.4 | |
| Oggi h: 09:50 | Pioggia | 11 | 10 | 93 | 1009 | 10 | N 5.5 | |
| Oggi h: 09:20 | Pioggia | 10 | 10 | 100 | 1009 | 10 | SE 7.4 | |
| Oggi h: 08:50 | Pioggia | 10 | 10 | 100 | 1009 | 10 | N 3.7 | |
| Oggi h: 08:20 | Pioggia | 10 | 9 | 93 | 1009 | 10 | N 0 | |
| Oggi h: 07:50 | Pioggia | 10 | 9 | 93 | 1009 | 10 | N 3.7 | |
| Oggi h: 07:20 | Poco Nuvoloso | 10 | 9 | 93 | 1009 | 10 | N 0 | |
| Oggi h: 06:50 | Poco Nuvoloso | 9 | 9 | 100 | 1009 | 10 | N 0 | |
| Oggi h: 06:20 | Poco Nuvoloso | 9 | 8 | 93 | 1009 | 10 | N 1.8 | |
| Oggi h: 05:50 | Poco Nuvoloso | 8 | 8 | 100 | 1009 | 10 | N 5.5 | |
| Oggi h: 05:20 | Poco Nuvoloso | 8 | 8 | 100 | 1009 | 10 | N 1.8 | |
| Oggi h: 04:50 | Sereno | 8 | 8 | 100 | 1009 | 10 | N 3.7 | |
| Oggi h: 04:20 | Sereno | 8 | 7 | 93 | 1009 | 10 | N 3.7 | |
| Oggi h: 03:50 | Sereno | 9 | 9 | 100 | 1009 | 10 | N 5.5 | |
| Oggi h: 03:20 | Sereno | 9 | 8 | 93 | 1009 | 10 | N 5.5 | |
| Oggi h: 02:50 | Sereno | 9 | 8 | 93 | 1009 | 10 | N 5.5 | |
| Oggi h: 02:20 | Sereno | 9 | 9 | 100 | 1008 | 10 | N 5.5 | |
| Oggi h: 01:50 | Sereno | 10 | 9 | 93 | 1008 | 10 | N 7.4 | |
| Oggi h: 01:20 | Sereno | 10 | 9 | 93 | 1008 | 10 | N 7.4 | |
| Oggi h: 00:50 | Sereno | 10 | 9 | 93 | 1008 | 10 | N 7.4 | |
| Oggi h: 00:20 | Sereno | 10 | 8 | 87 | 1008 | 10 | N 5.5 | |
| Ieri h: 23:50 | Sereno | 10 | 8 | 87 | 1008 | 10 | N 5.5 | |
| Ieri h: 23:20 | Sereno | 10 | 8 | 87 | 1008 | 10 | N 7.4 | |
| Ieri h: 22:50 | Sereno | 11 | 8 | 81 | 1008 | 10 | N 9.3 | |
| Ieri h: 22:20 | Sereno | 11 | 9 | 87 | 1008 | 10 | N 9.3 | |
| Ieri h: 21:50 | Sereno | 12 | 9 | 81 | 1007 | 10 | N 11.1 | |
| Ieri h: 21:20 | Sereno | 12 | 9 | 81 | 1007 | 10 | N/NO 11.1 | |
| Ieri h: 20:50 | Sereno | 13 | 8 | 71 | 1007 | 10 | N/NO 14.8 | |
| Ieri h: 20:20 | Sereno | 14 | 8 | 67 | 1007 | 10 | N/NO 14.8 | |
| Ieri h: 19:50 | Sereno | 15 | 9 | 67 | 1007 | 10 | NO 13 | |
| Ieri h: 19:20 | Sereno | 15 | 9 | 67 | 1006 | 10 | NO 14.8 | |
| Ieri h: 18:50 | Sereno | 15 | 10 | 72 | 1006 | 10 | NO 14.8 | |



